LANDSAT 8 (39084 NORAD) Tracking and Keplerian Element Data

This shows tracking and keplerian element data for the satellite.

Feedback or suggestion? Click here.




ElementValue
Catalog39084
NameLANDSAT 8
Epoch Orbit45851
Epoch Day269.18431301
Epoch Year2021
RAAN338.3718
Inclination98.2162
Eccentricity0.0001113
Argument of Perigee100.4053
Mean Anonmoly259.727
Mean Motion14.5710354
Decay Rate-3.1E-07
L11 39084U 13008A 21269.18431301 -.00000031 00000-0 31114-5 0 9997
L22 39084 98.2162 338.3718 0001113 100.4053 259.7270 14.57103540458511

Live tracking and technical data element details for LANDSAT 8 (NORAD 39084). LANDSAT 8 can be tracked NOW for your location showing map with azimuth and elevation plus other details from your city location.

Track the satellite on the map from your city or location and see movement details for azimuth, elevation, latitude, longitude, range, height, and movement on the map or in text.







IsCatalogInMostPopularTable: catalog: 39084, numindb: 526
Update: records affected: 1



GetName: 39084 LANDSAT 8

Hit Count: updated at: Mon, 27 Sep 2021 01:20:39 GMT